Regional Weather Roundup
Issued by NWS Newport/Morehead, NC

Current Version | Previous Version | Text Only | Print | Product List | Glossary On
Versions: 1 2 3 4 5 6 7 8 9 10 11 12 13 14 15 16 17 18 19 20 21 22 23 24 25 26 27 28 29 30 31 32 33 34 35 36 37 38 39 40 41 42 43 44 45 46 47 48 49 50
000 ASUS42 KMHX 271625 RWRMHX WEATHER ROUNDUP FOR EASTERN NORTH CAROLINA NATIONAL WEATHER SERVICE NEWPORT/MOREHEAD CITY NC 1200 PM EDT WED JUL 27 2016 NOTE: "FAIR" INDICATES FEW OR NO CLOUDS BELOW 12,000 FEET WITH NO SIGNIFICANT WEATHER AND/OR OBSTRUCTIONS TO VISIBILITY NCZ015>017-031-032-045>047-102-103-271700- NORTH COAST CITY SKY/WX TMP DP RH WIND PRES REMARKS EDENTON MOSUNNY 90 74 59 NW6 29.98S ELIZABETH CITY SUNNY 89 76 65 N6 29.96S HX 100 KITTY HAWK SUNNY 91 74 56 W3 29.96S HX 100 MANTEO N/A 88 78 71 N6 29.97S HX 101 $$ NCZ045>047-081-094-103-104-271700- CENTRAL COAST CITY SKY/WX TMP DP RH WIND PRES REMARKS FRISCO CLOUDY 87 78 74 W8 29.97S HX 100 $$ NCZ095-097-098-100-101-271700- SOUTHERN COAST CITY SKY/WX TMP DP RH WIND PRES REMARKS BEAUFORT SUNNY 87 79 76 SW9 29.98S HX 101 CEDAR ISLAND NOT AVBL JACKSONVILLE MOSUNNY 91 75 59 W8 29.98S HX 101 PINEY ISLAND NOT AVBL WILMINGTON SUNNY 93 75 55 SW13 30.00S HX 104 $$ NCZ011>013-027>030-043-044-078>080-089-090>093-098-271700- COASTAL PLAIN CITY SKY/WX TMP DP RH WIND PRES REMARKS AHOSKIE SUNNY 86 77 75 CALM 29.98S CLINTON SUNNY 91 76 60 SW6 30.00R HX 102 ELIZABETHTOWN MOSUNNY 94 74 53 SW7 30.00S HX 104 GOLDSBORO MOSUNNY 91 77 63 SW8 29.97S HX 103 GREENVILLE SUNNY 91 79 66 SW3 29.99S HX 107 HAVELOCK MOSUNNY 92 76 59 W9 29.99S HX 104 KENANSVILLE NOT AVBL KINSTON SUNNY 91 75 59 W3 29.99R HX 102 NEW BERN MOSUNNY 92 76 59 W3 29.99S HX 104 RICHLANDS MOSUNNY 93 76 57 NW6 30.00R HX 105 ROCKY MOUNT SUNNY 90 78 68 CALM 29.99R HX 104 WASHINGTON MOSUNNY 90 78 68 N3 29.97S HX 103 WHITEVILLE SUNNY 92 75 58 W5 30.00F HX 102 $$ AMZ130-135-150-152-154-156-158-170-250-252-270-ANZ085-086-088-633-658-670-271700- MARINE OBSERVATIONS STATION/POSITION TIME TEMP WIND PRES WAVE SWELL AIR SEA DIR/SP/G HT/PER HT/PER (UTC) (F) (DEG/KT/KT) (MB) (FT/S) (FT/S) CHESAPEAKE LIGHT NOT AVBL 64 E VA BEACH 1550 81 81 180/ 4/ 6 1014.2 3/ 6 2/ 6 DUCK 1600 81 66 60/ 6/ 7 1014.1 2 E DUCK 1611 76 N/A 1/ 6 OREGON INLET 1600 85 84 220/ 5/ 8 1014.5 13E OREGON INLT 1600 83 N/A 2/ 6 2/ 6 HATTERAS CG 1600 86 83 270/ 7/ 9 1014.8 DIAMOND BUOY 1550 83 84 250/ 10/ 12 1015.0 4/ 5 3/ 5 CAPE LOOKOUT 1600 85 250/ 12/ 14 1015.0 BEAUFORT LAB 1600 86 82 220/ 7/ 12 1014.8 30 SE NEW RVR IN 1608 85 85 250/ 12/ 16 1015.7 30 SE NEW RVR IN 1555 84 N/A 4/ 6 27 SE WRIGHTSVLE 1608 84 84 240/ 12/ 16 1016.2 5 SE WRIGHTSVLE 1608 85 80 250/ 6/ 8 1016.7 225 S CAPE HAT 1550 85 84 270/ 12/ 16 1017.7 4/ 5 2/ 8 41 SE CHARLESTON 1550 84 86 250/ 12/ 14 1017.5 3/ 5 2/ 6 $$

USA.gov is the U.S. government's official web portal to all federal, state and local government web resources and services.